GW0993 Weather Reports


Display with metric or nautical units.
time (UTC)temp
F
wind
direction
speed
MPH
gust
MPH
rain 1hr
in
rain 24hr
in
rain mn
in
humidity
%
barometer
mb
20260506091008 50 196 0.0 3.0 0.00 0.00 0.00 91 1016.0
20260506090508 50 196 1.0 3.0 0.00 0.00 0.00 90 1016.0
20260506090027 50 196 1.0 3.0 0.00 0.00 0.00 90 1016.1
20260506085508 50 196 1.0 3.0 0.00 0.00 0.00 90 1016.1
20260506085008 50 0 0.0 1.0 0.00 0.00 0.00 89 1016.0
20260506084527 50 0 0.0 0.0 0.00 0.00 0.00 89 1016.0
20260506084008 50 0 0.0 0.0 0.00 0.00 0.00 89 1016.0
20260506083510 50 0 0.0 0.0 0.00 0.00 0.00 88 1016.0
20260506083026 51 0 0.0 0.0 0.00 0.00 0.00 88 1016.0
20260506082513 51 0 0.0 0.0 0.00 0.00 0.00 88 1016.0
20260506082013 51 0 0.0 0.0 0.00 0.00 0.00 88 1016.0
20260506081528 52 0 0.0 1.0 0.00 0.00 0.00 87 1015.9
20260506081011 52 0 0.0 1.0 0.00 0.00 0.00 86 1015.8
20260506080511 52 0 0.0 2.0 0.00 0.00 0.00 87 1015.8
20260506073514 54 192 2.0 6.0 0.00 0.00 0.00 85 1015.5
20260506073026 54 221 2.0 5.0 0.00 0.00 0.00 85 1015.5
20260506072512 54 197 2.0 6.0 0.00 0.00 0.00 85 1015.5
20260506072015 54 183 3.0 6.0 0.00 0.00 0.00 85 1015.4
20260506071528 54 200 2.0 5.0 0.00 0.00 0.00 85 1015.3
20260506071010 54 226 2.0 6.0 0.00 0.00 0.00 85 1015.3
20260506070511 54 201 2.0 6.0 0.00 0.00 0.00 85 1015.3
20260506062510 55 194 4.0 8.0 0.00 0.00 0.00 83 1015.1
20260506062011 55 211 2.0 6.0 0.00 0.00 0.00 83 1015.1
20260506061527 55 200 3.0 8.0 0.00 0.00 0.00 83 1015.1
20260506061010 55 180 2.0 9.0 0.00 0.00 0.00 83 1015.0
20260506060508 56 221 3.0 9.0 0.00 0.00 0.00 83 1015.1
20260506051011 56 194 3.0 7.0 0.00 0.00 0.00 81 1014.9
20260506050510 56 225 3.0 6.0 0.00 0.00 0.00 81 1015.0
20260506045010 57 227 3.0 9.0 0.00 0.00 0.00 80 1014.8
20260506044525 57 228 3.0 9.0 0.00 0.00 0.00 80 1014.8
20260506044011 57 220 3.0 9.0 0.00 0.00 0.00 80 1014.7
20260506043515 57 232 4.0 9.0 0.00 0.00 0.00 80 1014.6
20260506043027 57 193 4.0 10.0 0.00 0.00 0.00 79 1014.6
20260506042510 57 209 5.0 10.0 0.00 0.00 0.00 79 1014.6
20260506042012 57 197 3.0 10.0 0.00 0.00 0.00 79 1014.4
20260506041526 57 200 6.0 10.0 0.00 0.00 0.00 79 1014.4
20260506041008 57 215 4.0 8.0 0.00 0.00 0.00 79 1014.3
20260506040512 57 211 4.0 7.0 0.00 0.00 0.00 79 1014.3
20260506040030 58 213 4.0 7.0 0.00 0.00 0.00 79 1014.2
20260506035510 58 208 3.0 8.0 0.00 0.00 0.00 79 1014.2
20260506035012 58 209 4.0 8.0 0.00 0.00 0.00 79 1014.1
20260506034530 58 211 2.0 8.0 0.00 0.00 0.00 79 1014.0
20260506034013 58 205 4.0 9.0 0.00 0.00 0.00 78 1014.0
20260506033512 58 228 3.0 9.0 0.00 0.00 0.00 78 1014.0
20260506033026 59 211 3.0 7.0 0.00 0.00 0.00 77 1014.0
20260506032509 59 234 3.0 7.0 0.00 0.00 0.00 77 1014.0
20260506032011 59 203 2.0 8.0 0.00 0.00 0.00 76 1014.0
20260506031528 60 243 4.0 8.0 0.00 0.00 0.00 75 1013.9
20260506031013 60 205 3.0 11.0 0.00 0.00 0.00 75 1013.9
20260506030513 61 236 4.0 11.0 0.00 0.00 0.00 74 1013.8
20260506030033 61 224 3.0 7.0 0.00 0.00 0.00 74 1013.8
20260506025513 61 204 2.0 9.0 0.00 0.00 0.00 74 1013.8
20260506025013 62 194 5.0 9.0 0.00 0.00 0.00 73 1013.9
20260506024529 62 219 3.0 14.0 0.00 0.00 0.00 73 1013.8
20260506024010 62 239 7.0 14.0 0.00 0.00 0.00 72 1013.8
20260506023511 63 207 5.0 11.0 0.00 0.00 0.00 71 1013.8
20260506023030 63 236 3.0 11.0 0.00 0.00 0.00 71 1013.8
20260506022512 63 188 5.0 11.0 0.00 0.00 0.00 70 1013.8
20260506022013 63 221 5.0 15.0 0.00 0.00 0.00 70 1013.9
20260506021527 64 225 6.0 15.0 0.00 0.00 0.00 69 1013.8
20260506021011 64 259 7.0 13.0 0.00 0.00 0.00 69 1013.9
20260506020512 64 220 3.0 11.0 0.00 0.00 0.00 69 1014.0
20260506020053 64 188 7.0 14.0 0.00 0.00 0.00 68 1013.9
20260506015513 64 195 5.0 14.0 0.00 0.00 0.00 69 1013.9
20260506015016 64 208 7.0 14.0 0.00 0.00 0.00 68 1013.9
20260506014527 64 222 7.0 13.0 0.00 0.00 0.00 68 1013.9
20260506014012 64 225 6.0 17.0 0.00 0.00 0.00 68 1014.0
20260506013514 64 205 6.0 17.0 0.00 0.00 0.00 67 1014.0
20260506013027 64 208 7.0 16.0 0.00 0.00 0.00 67 1014.0
20260506012511 64 219 5.0 16.0 0.00 0.00 0.00 68 1013.9
20260506012012 65 190 7.0 15.0 0.00 0.00 0.00 67 1013.9
20260506011533 64 181 5.0 15.0 0.00 0.00 0.00 69 1013.8
20260506011010 64 225 7.0 18.0 0.00 0.00 0.00 69 1014.0
20260506010511 64 231 6.0 18.0 0.00 0.00 0.00 70 1013.9
20260506010030 64 235 9.0 15.0 0.00 0.00 0.00 69 1013.9
20260506005517 65 175 6.0 14.0 0.00 0.00 0.00 69 1013.9
20260506005012 65 229 7.0 12.0 0.00 0.00 0.00 69 1014.0
20260506004539 65 250 4.0 16.0 0.00 0.00 0.00 69 1013.9
20260506004012 65 226 7.0 16.0 0.00 0.00 0.00 68 1013.9
20260506003512 66 276 6.0 13.0 0.00 0.00 0.00 69 1014.0
20260506003027 66 225 8.0 14.0 0.00 0.00 0.00 68 1014.0
20260506002512 66 216 6.0 14.0 0.00 0.00 0.00 68 1014.1
20260506002011 66 211 4.0 11.0 0.00 0.00 0.00 68 1014.0
20260506001527 66 219 5.0 14.0 0.00 0.00 0.00 70 1014.0
20260506001012 66 221 6.0 14.0 0.00 0.00 0.00 70 1014.1
20260506000511 65 188 3.0 15.0 0.00 0.00 0.00 70 1014.2
20260506000042 65 248 6.0 15.0 0.00 0.00 0.00 72 1014.2
20260505235516 65 213 6.0 14.0 0.00 0.00 0.00 70 1014.3
20260505235013 65 207 7.0 14.0 0.00 0.00 0.00 70 1014.2
20260505234528 65 184 8.0 15.0 0.00 0.00 0.00 69 1014.4
20260505234013 65 201 6.0 15.0 0.00 0.00 0.00 71 1014.3
20260505233513 65 196 8.0 15.0 0.00 0.00 0.00 69 1014.4
20260505233030 66 173 5.0 14.0 0.00 0.00 0.00 70 1014.3
20260505232512 66 190 8.0 14.0 0.00 0.00 0.00 69 1014.5
20260505232012 66 206 4.0 11.0 0.00 0.00 0.00 69 1014.4
20260505231531 66 221 4.0 11.0 0.00 0.00 0.00 69 1014.5
20260505231012 66 236 4.0 16.0 0.00 0.00 0.00 71 1014.5
20260505230512 66 240 4.0 16.0 0.00 0.00 0.00 71 1014.5
20260505230040 65 181 7.0 14.0 0.00 0.00 0.00 71 1014.5
20260505225511 65 175 7.0 14.0 0.00 0.00 0.00 71 1014.6
20260505225016 65 229 7.0 14.0 0.00 0.00 0.00 71 1014.6
20260505224537 65 189 7.0 15.0 0.00 0.00 0.00 70 1014.7
20260505224011 65 238 8.0 15.0 0.00 0.00 0.00 69 1014.7
20260505223513 66 226 7.0 17.0 0.00 0.00 0.00 71 1014.9
20260505223034 66 219 10.0 17.0 0.00 0.00 0.00 69 1014.8
20260505222515 66 229 6.0 15.0 0.00 0.00 0.00 69 1014.9
20260505222015 66 196 7.0 14.0 0.00 0.00 0.00 69 1014.9
20260505221530 66 212 7.0 15.0 0.00 0.00 0.00 69 1015.0
20260505221012 66 236 3.0 15.0 0.00 0.00 0.00 70 1015.0
20260505220512 66 197 6.0 13.0 0.00 0.00 0.00 69 1015.0
20260505220027 66 213 8.0 13.0 0.00 0.00 0.00 68 1015.0
20260505215514 67 218 5.0 16.0 0.00 0.00 0.00 67 1015.0
20260505215011 67 217 8.0 15.0 0.00 0.00 0.00 68 1015.0
20260505214530 67 253 6.0 15.0 0.00 0.00 0.00 69 1015.0
20260505214014 66 246 5.0 13.0 0.00 0.00 0.00 69 1015.0
20260505213513 66 194 7.0 13.0 0.00 0.00 0.00 68 1015.1
20260505213028 67 219 6.0 16.0 0.00 0.00 0.00 68 1015.1
20260505212510 67 211 6.0 16.0 0.00 0.00 0.00 70 1015.1
20260505212015 66 254 8.0 15.0 0.00 0.00 0.00 69 1015.2
20260505211532 66 214 7.0 14.0 0.00 0.00 0.00 69 1015.2
20260505211009 65 251 6.0 15.0 0.00 0.00 0.00 69 1015.2
20260505210513 65 209 8.0 16.0 0.00 0.00 0.00 69 1015.2
20260505210032 65 223 6.0 16.0 0.00 0.00 0.00 71 1015.3
20260505205517 65 217 9.0 15.0 0.00 0.00 0.00 69 1015.3
20260505205009 65 177 6.0 15.0 0.00 0.00 0.00 69 1015.4
20260505204530 66 198 4.0 13.0 0.00 0.00 0.00 71 1015.4
20260505204009 65 232 5.0 13.0 0.00 0.00 0.00 71 1015.4
20260505203510 66 188 6.0 13.0 0.00 0.00 0.00 68 1015.4
20260505203027 66 167 6.0 14.0 0.00 0.00 0.00 68 1015.4
20260505202512 66 214 7.0 14.0 0.00 0.00 0.00 71 1015.4
20260505202012 66 178 3.0 12.0 0.00 0.00 0.00 72 1015.4
20260505201528 65 208 5.0 12.0 0.00 0.00 0.00 69 1015.4
20260505201009 65 214 5.0 13.0 0.00 0.00 0.00 71 1015.4
20260505200511 65 216 6.0 16.0 0.00 0.00 0.00 70 1015.4
20260505200032 65 204 6.0 16.0 0.00 0.00 0.00 74 1015.5
20260505195512 65 242 4.0 13.0 0.00 0.00 0.00 72 1015.5
20260505195010 65 197 4.0 11.0 0.00 0.00 0.00 73 1015.5
20260505194528 65 247 3.0 12.0 0.00 0.00 0.00 73 1015.6
20260505194016 65 196 4.0 12.0 0.00 0.00 0.00 74 1015.5
20260505193514 65 211 6.0 11.0 0.00 0.00 0.00 73 1015.5
20260505193029 64 191 4.0 10.0 0.00 0.00 0.00 74 1015.4
20260505192511 64 236 3.0 11.0 0.00 0.00 0.00 75 1015.4
20260505192012 64 248 4.0 12.0 0.00 0.00 0.00 73 1015.5
20260505191533 64 246 5.0 12.0 0.00 0.00 0.00 74 1015.4
20260505191013 64 207 7.0 14.0 0.00 0.00 0.00 74 1015.4
20260505190511 63 242 7.0 14.0 0.00 0.00 0.00 73 1015.3
20260505190033 63 254 6.0 13.0 0.00 0.00 0.00 73 1015.4
20260505185514 64 230 4.0 12.0 0.00 0.00 0.00 75 1015.4
20260505185009 64 208 4.0 11.0 0.00 0.00 0.00 73 1015.4
20260505184546 64 207 7.0 13.0 0.00 0.00 0.00 72 1015.4
20260505184010 64 247 3.0 13.0 0.00 0.00 0.00 76 1015.4
20260505183509 64 227 4.0 12.0 0.00 0.00 0.00 75 1015.4
20260505183027 63 250 1.0 8.0 0.00 0.00 0.00 78 1015.4
20260505182508 63 211 3.0 10.0 0.00 0.00 0.00 75 1015.3
20260505182018 63 227 5.0 13.0 0.00 0.00 0.00 77 1015.4
20260505181526 63 244 4.0 13.0 0.00 0.00 0.00 74 1015.4
20260505181012 64 216 4.0 8.0 0.00 0.00 0.00 73 1015.4
20260505180512 64 244 3.0 6.0 0.00 0.00 0.00 72 1015.3
20260505180028 64 247 2.0 10.0 0.00 0.00 0.00 75 1015.2
20260505175512 64 251 4.0 10.0 0.00 0.00 0.00 74 1015.3
20260505175009 64 229 3.0 10.0 0.00 0.00 0.00 75 1015.3
20260505174536 63 233 5.0 10.0 0.00 0.00 0.00 75 1015.3
20260505174010 63 224 3.0 10.0 0.00 0.00 0.00 75 1015.2
20260505173509 63 247 2.0 9.0 0.00 0.00 0.00 76 1015.4
20260505173025 63 215 4.0 10.0 0.00 0.00 0.00 76 1015.4
20260505172512 63 186 5.0 10.0 0.00 0.00 0.00 74 1015.4
20260505172010 63 232 2.0 12.0 0.00 0.00 0.00 76 1015.3
20260505171536 63 239 5.0 12.0 0.00 0.00 0.00 76 1015.3
20260505171008 63 236 2.0 9.0 0.00 0.00 0.00 76 1015.2
20260505170509 62 247 3.0 9.0 0.00 0.00 0.00 76 1015.2
20260505170025 63 190 3.0 7.0 0.00 0.00 0.00 73 1015.3
20260505165510 63 247 3.0 7.0 0.00 0.00 0.00 75 1015.2
20260505165011 63 254 2.0 7.0 0.00 0.00 0.00 76 1015.1
20260505164527 62 233 2.0 8.0 0.00 0.00 0.00 77 1015.2
20260505164011 62 228 3.0 10.0 0.00 0.00 0.00 78 1015.1
20260505163507 61 227 4.0 10.0 0.00 0.00 0.00 77 1015.0
20260505163030 62 200 4.0 9.0 0.00 0.00 0.00 76 1015.2
20260505162511 62 195 1.0 4.0 0.00 0.00 0.00 78 1015.1
20260505162010 61 243 2.0 8.0 0.00 0.00 0.00 77 1015.1
20260505161528 61 252 2.0 9.0 0.00 0.00 0.00 80 1015.1
20260505161008 60 219 5.0 9.0 0.00 0.00 0.00 78 1015.0
20260505160518 60 212 3.0 8.0 0.00 0.00 0.00 79 1015.0
20260505153036 59 232 4.0 9.0 0.00 0.00 0.00 80 1014.9
20260505152511 59 214 4.0 9.0 0.00 0.00 0.00 80 1015.0
20260505152012 59 194 2.0 7.0 0.00 0.00 0.00 81 1015.0
20260505151527 59 270 2.0 6.0 0.00 0.00 0.00 80 1014.8
20260505151012 59 212 3.0 9.0 0.00 0.00 0.00 82 1014.8
20260505150516 58 215 5.0 9.0 0.00 0.00 0.00 81 1014.7
20260505140511 54 193 5.0 8.0 0.00 0.00 0.00 88 1014.1
20260505125011 53 178 2.0 5.0 0.00 0.00 0.00 87 1013.5
20260505124530 53 233 2.0 6.0 0.00 0.00 0.00 87 1013.3
20260505124010 53 198 3.0 6.0 0.00 0.00 0.00 87 1013.2
20260505123514 53 210 2.0 6.0 0.00 0.00 0.00 87 1013.1
20260505123044 53 209 3.0 7.0 0.00 0.00 0.00 87 1013.1
20260505122512 53 224 3.0 7.0 0.00 0.00 0.00 87 1013.0
20260505122018 53 195 2.0 5.0 0.00 0.00 0.00 87 1012.9
20260505121528 53 205 2.0 5.0 0.00 0.00 0.00 87 1012.9
20260505121013 53 200 1.0 5.0 0.00 0.00 0.00 87 1012.8
20260505120513 53 211 2.0 5.0 0.00 0.00 0.00 87 1012.7
20260505120037 53 204 2.0 7.0 0.00 0.00 0.00 87 1012.7
20260505115512 53 207 1.0 7.0 0.00 0.00 0.00 86 1012.7
20260505115012 53 198 2.0 6.0 0.00 0.00 0.00 86 1012.4
20260505114531 53 198 2.0 6.0 0.00 0.00 0.00 86 1012.5
20260505114011 53 192 2.0 5.0 0.00 0.00 0.00 85 1012.4
20260505113512 53 221 0.0 5.0 0.00 0.00 0.00 85 1012.5
20260505113029 53 221 2.0 5.0 0.00 0.00 0.00 85 1012.4
20260505112515 54 208 2.0 5.0 0.00 0.00 0.00 84 1012.4
20260505112011 54 223 1.0 7.0 0.00 0.00 0.00 84 1012.4
20260505111533 54 196 2.0 7.0 0.00 0.00 0.00 84 1012.3
20260505111013 54 218 1.0 5.0 0.00 0.00 0.00 83 1012.2
20260505110510 54 194 2.0 5.0 0.00 0.00 0.00 83 1012.2
20260505102013 53 213 1.0 3.0 0.00 0.00 0.00 79 1011.8
20260505101013 53 229 1.0 2.0 0.00 0.00 0.00 79 1011.7
20260505100512 54 0 1.0 2.0 0.00 0.00 0.00 79 1011.6
20260505100034 54 0 0.0 2.0 0.00 0.00 0.00 79 1011.6
20260505095517 54 0 0.0 2.0 0.00 0.00 0.00 79 1011.6
20260505095016 54 0 0.0 2.0 0.00 0.00 0.00 79 1011.6
20260505094532 54 221 0.0 2.0 0.00 0.00 0.00 79 1011.7
20260505094013 54 0 0.0 2.0 0.00 0.00 0.00 79 1011.5
20260505093512 54 0 0.0 2.0 0.00 0.00 0.00 79 1011.5
20260505093031 54 221 0.0 2.0 0.00 0.00 0.00 78 1011.6
20260505092513 55 0 0.0 5.0 0.00 0.00 0.00 78 1011.5
20260505092013 55 221 2.0 5.0 0.00 0.00 0.00 79 1011.5
20260505091528 55 215 2.0 5.0 0.00 0.00 0.00 79 1011.5